Weather History for Springfield, IL

Change the Weather History Date:

Tuesday, February 5, 2013

  Actual Average Record
Temperature  
Mean Temperature 35 °F 28 °F  
Max Temperature 46 °F 37 °F 66 °F (1938)
Min Temperature 24 °F 20 °F -12 °F (1979)
Degree Days  
Heating Degree Days 30 37  
Month to date heating degree days 184 185  
Since 1 July heating degree days 3147 3511  
Cooling Degree Days 0 0  
Month to date cooling degree days 0 0  
Year to date cooling degree days 0 0  
Moisture  
Dew Point 26 °F    
Average Humidity 73    
Maximum Humidity 92    
Minimum Humidity 53    
Precipitation  
Precipitation 0.00 in 0.05 in 1.38 in (2008)
Month to date precipitation 0.07 0.27  
Year to date precipitation 2.79 2.09  
Snow  
Snow 0.00 in 0.20 in 3.80 in (1905)
Month to date snowfall 0.9 1.1  
Since 1 July snowfall 5.5 13.7  
Snow Depth 0.00 in    
Sea Level Pressure  
Sea Level Pressure 29.98 in    
Wind  
Wind Speed 9 mph (West)    
Max Wind Speed 21 mph    
Max Gust Speed 26 mph    
Visibility 10 miles    
Events      
T = Trace of Precipitation, MM = Missing Value Source: NWS Daily Summary

Daily Weather History Graph

Daily Weather History Graph

Search for Another Location

Airport:

Trip Planner

Search our weather history database for the weather conditions in past years. The results will help you decide how hot, cold, wet, or windy it might be!

Date:

Astronomy

Feb. 05, 2013 Rise Set
Actual Time 7:02 AM CST 5:23 PM CST
Civil Twilight 6:34 AM CST 5:51 PM CST
Nautical Twilight 6:02 AM CST 6:23 PM CST
Astronomical Twilight 5:30 AM CST 6:55 PM CST
Moon 2:44 AM CST (2/5) 12:41 PM CST (2/5)
Length of Visible Light 11h 17m
Length of Day
10h 20m
Waning Crescent, 26% of the Moon is Illuminated
Feb 5
Waning Crescent
Feb 10
New
Feb 17
First Quarter
Feb 25
Full
Mar 4
Last Quarter

Hourly Weather History & Observations

Time (CST) Temp. Windchill Dew Point Humidity Pressure Visibility Wind Dir Wind Speed Gust Speed Precip Events Conditions
12:52 AM 27.0 °F 23.0 °F 21.9 °F 81% 29.97 in 10.0 mi NW 3.5 mph - N/A   Overcast
1:52 AM 25.0 °F - 21.0 °F 85% 29.97 in 10.0 mi Calm Calm - N/A   Mostly Cloudy
2:49 AM 26.6 °F 22.6 °F 21.2 °F 80% 29.96 in 10.0 mi WNW 3.5 mph - N/A   Scattered Clouds
2:52 AM 27.0 °F 23.0 °F 21.9 °F 81% 29.97 in 10.0 mi WNW 3.5 mph - N/A   Partly Cloudy
3:52 AM 26.1 °F - 21.9 °F 84% 29.96 in 10.0 mi Calm Calm - N/A   Scattered Clouds
4:52 AM 27.0 °F - 21.9 °F 81% 29.95 in 10.0 mi Calm Calm - N/A   Clear
5:52 AM 27.0 °F 21.6 °F 23.0 °F 85% 29.95 in 10.0 mi SW 4.6 mph - N/A   Partly Cloudy
6:52 AM 28.0 °F 22.8 °F 23.0 °F 81% 29.95 in 9.0 mi SSW 4.6 mph - N/A   Overcast
7:52 AM 28.0 °F 19.3 °F 24.1 °F 85% 29.94 in 7.0 mi SSW 9.2 mph - N/A   Overcast
8:52 AM 28.9 °F 19.2 °F 24.1 °F 82% 29.94 in 7.0 mi SSW 11.5 mph - N/A   Mostly Cloudy
9:52 AM 30.9 °F 21.7 °F 25.0 °F 79% 29.94 in 7.0 mi SSW 11.5 mph - N/A   Scattered Clouds
10:52 AM 35.1 °F 26.4 °F 27.0 °F 72% 29.92 in 9.0 mi SW 12.7 mph 19.6 mph N/A   Clear
11:52 AM 39.0 °F 31.4 °F 28.0 °F 65% 29.90 in 10.0 mi SW 12.7 mph - N/A   Clear
12:52 PM 42.1 °F 34.2 °F 30.0 °F 62% 29.88 in 10.0 mi WSW 16.1 mph 21.9 mph N/A   Clear
1:52 PM 44.1 °F 36.5 °F 32.0 °F 63% 29.88 in 10.0 mi WSW 17.3 mph 23.0 mph N/A   Clear
2:52 PM 46.0 °F 39.0 °F 32.0 °F 58% 29.90 in 10.0 mi WNW 17.3 mph - N/A   Clear
3:52 PM 46.0 °F 39.3 °F 30.9 °F 56% 29.93 in 10.0 mi WNW 16.1 mph 23.0 mph N/A   Clear
4:52 PM 42.8 °F 36.2 °F 30.2 °F 61% 29.94 in 10.0 mi WNW 12.7 mph - N/A   Partly Cloudy
5:52 PM 39.9 °F 32.5 °F 30.0 °F 68% 29.99 in 10.0 mi NW 12.7 mph - N/A   Clear
6:52 PM 37.0 °F 29.8 °F 30.0 °F 76% 30.04 in 10.0 mi NW 10.4 mph - N/A   Partly Cloudy
7:39 PM 37.4 °F 29.3 °F 30.2 °F 75% 30.05 in 10.0 mi NNW 12.7 mph 19.6 mph N/A   Overcast
7:52 PM 37.0 °F 28.5 °F 28.9 °F 73% 30.07 in 10.0 mi NW 13.8 mph 21.9 mph N/A   Overcast
8:52 PM 37.0 °F 31.6 °F 28.0 °F 70% 30.09 in 10.0 mi NW 6.9 mph - N/A   Overcast
9:29 PM 33.8 °F 29.6 °F 26.6 °F 75% 30.08 in 10.0 mi NW 4.6 mph - N/A   Scattered Clouds
9:52 PM 33.1 °F - 27.0 °F 78% 30.11 in 10.0 mi Calm Calm - N/A   Clear
10:52 PM 28.9 °F 25.2 °F 26.1 °F 89% 30.12 in 10.0 mi West 3.5 mph - N/A   Clear
11:52 PM 28.9 °F 22.8 °F 25.0 °F 85% 30.14 in 10.0 mi SW 5.8 mph - N/A   Clear